TimeCDT,TemperatureF,Dew PointF,Humidity,Sea Level PressureIn,VisibilityMPH,Wind Direction,Wind SpeedMPH,Gust SpeedMPH,PrecipitationIn,Events,Conditions,WindDirDegrees,DateUTC
12:15 AM,55.2,41.4,60,30.15,10.0,SE,6.9,-,N/A,,Clear,130,2013-04-21 05:15:00
12:35 AM,55.8,41.7,59,30.16,10.0,SE,5.8,-,N/A,,Clear,130,2013-04-21 05:35:00
12:55 AM,55.8,41.2,58,30.16,10.0,SE,5.8,-,N/A,,Clear,140,2013-04-21 05:55:00
1:15 AM,55.8,40.3,56,30.16,10.0,SE,5.8,-,N/A,,Clear,140,2013-04-21 06:15:00
1:35 AM,55.8,39.7,55,30.16,10.0,SSE,6.9,-,N/A,,Clear,150,2013-04-21 06:35:00
4:15 AM,53.4,39.0,58,30.17,10.0,SSE,8.1,-,N/A,,Clear,150,2013-04-21 09:15:00
4:35 AM,53.4,39.0,58,30.17,10.0,SE,5.8,-,N/A,,Clear,140,2013-04-21 09:35:00
4:55 AM,55.2,40.3,57,30.18,10.0,SSE,9.2,-,N/A,,Clear,150,2013-04-21 09:55:00
5:15 AM,55.4,40.5,57,30.19,10.0,SSE,9.2,-,N/A,,Clear,160,2013-04-21 10:15:00
5:35 AM,53.4,39.6,59,30.19,10.0,South,8.1,-,N/A,,Clear,170,2013-04-21 10:35:00
5:55 AM,53.2,39.6,60,30.20,10.0,South,8.1,-,N/A,,Clear,170,2013-04-21 10:55:00
6:15 AM,53.2,39.6,60,30.21,10.0,South,9.2,-,N/A,,Clear,170,2013-04-21 11:15:00
6:35 AM,53.8,40.1,60,30.22,10.0,SSE,9.2,-,N/A,,Clear,160,2013-04-21 11:35:00
6:55 AM,53.2,39.9,61,30.22,10.0,SSE,8.1,-,N/A,,Clear,160,2013-04-21 11:55:00
7:15 AM,53.2,40.6,62,30.23,10.0,SSE,6.9,-,N/A,,Clear,150,2013-04-21 12:15:00
7:35 AM,53.2,40.6,62,30.23,10.0,SSE,6.9,-,N/A,,Clear,160,2013-04-21 12:35:00
7:55 AM,54.7,41.7,62,30.23,10.0,SSE,10.4,-,N/A,,Clear,150,2013-04-21 12:55:00
8:15 AM,55.8,41.5,59,30.23,10.0,SSE,10.4,-,N/A,,Clear,160,2013-04-21 13:15:00
8:35 AM,55.8,41.2,58,30.23,10.0,SSE,10.4,-,N/A,,Clear,160,2013-04-21 13:35:00
8:55 AM,55.8,40.3,56,30.24,10.0,SSE,10.4,-,N/A,,Clear,160,2013-04-21 13:55:00
9:15 AM,55.8,40.5,56,30.24,10.0,SSE,8.1,-,N/A,,Clear,150,2013-04-21 14:15:00
9:35 AM,56.3,41.2,57,30.23,10.0,SE,10.4,17.3,N/A,,Clear,140,2013-04-21 14:35:00
9:55 AM,58.1,42.4,56,30.23,10.0,SSE,10.4,-,N/A,,Clear,150,2013-04-21 14:55:00
10:15 AM,59.5,42.3,53,30.23,10.0,SSE,11.5,18.4,N/A,,Clear,160,2013-04-21 15:15:00
10:35 AM,61.3,40.5,46,30.23,10.0,South,19.6,23.0,N/A,,Clear,180,2013-04-21 15:35:00
10:55 AM,63.0,39.2,42,30.23,10.0,SSE,18.4,24.2,N/A,,Clear,160,2013-04-21 15:55:00
11:15 AM,63.5,38.5,40,30.23,10.0,SSW,19.6,31.1,N/A,,Clear,200,2013-04-21 16:15:00
11:35 AM,63.7,39.4,41,30.23,10.0,SSW,20.7,27.6,N/A,,Clear,210,2013-04-21 16:35:00
11:55 AM,63.0,40.5,44,30.23,10.0,SSW,19.6,29.9,N/A,,Clear,210,2013-04-21 16:55:00
12:15 PM,63.1,40.5,43,30.22,10.0,SSW,23.0,29.9,N/A,,Clear,210,2013-04-21 17:15:00
12:35 PM,63.7,39.6,41,30.21,10.0,SSW,20.7,25.3,N/A,,Clear,200,2013-04-21 17:35:00
12:55 PM,63.7,40.6,43,30.20,10.0,SSW,19.6,25.3,N/A,,Clear,210,2013-04-21 17:55:00
1:15 PM,63.7,40.6,43,30.20,10.0,SSW,18.4,23.0,N/A,,Clear,200,2013-04-21 18:15:00
1:35 PM,64.9,41.9,43,30.19,10.0,SSW,16.1,21.9,N/A,,Clear,210,2013-04-21 18:35:00
1:55 PM,65.7,42.1,42,30.19,10.0,South,13.8,20.7,N/A,,Clear,190,2013-04-21 18:55:00
2:15 PM,65.8,40.6,40,30.18,10.0,SSW,19.6,24.2,N/A,,Clear,210,2013-04-21 19:15:00
2:35 PM,66.0,38.8,37,30.17,10.0,SSW,17.3,27.6,N/A,,Scattered Clouds,210,2013-04-21 19:35:00
2:55 PM,67.1,39.0,36,30.16,10.0,SSW,13.8,-,N/A,,Scattered Clouds,200,2013-04-21 19:55:00
3:15 PM,67.8,39.2,35,30.15,10.0,SSW,12.7,21.9,N/A,,Clear,210,2013-04-21 20:15:00
3:35 PM,68.4,39.2,34,30.14,10.0,South,18.4,24.2,N/A,,Clear,190,2013-04-21 20:35:00
3:55 PM,68.4,36.9,31,30.14,10.0,South,12.7,19.6,N/A,,Clear,190,2013-04-21 20:55:00
4:15 PM,69.1,37.2,31,30.13,10.0,SSW,15.0,20.7,N/A,,Scattered Clouds,210,2013-04-21 21:15:00
4:35 PM,68.7,38.1,33,30.12,10.0,SSW,10.4,-,N/A,,Scattered Clouds,200,2013-04-21 21:35:00
4:55 PM,70.2,39.4,33,30.12,10.0,SSW,11.5,17.3,N/A,,Clear,200,2013-04-21 21:55:00
5:15 PM,69.8,39.2,33,30.11,10.0,SW,11.5,-,N/A,,Clear,220,2013-04-21 22:15:00
5:35 PM,68.4,38.5,33,30.11,10.0,SSW,11.5,16.1,N/A,,Clear,210,2013-04-21 22:35:00
5:55 PM,68.4,38.1,33,30.11,10.0,SSW,8.1,-,N/A,,Clear,200,2013-04-21 22:55:00
6:15 PM,68.4,39.4,35,30.11,10.0,SSW,8.1,-,N/A,,Clear,210,2013-04-21 23:15:00
6:35 PM,67.5,38.1,34,30.12,10.0,SSW,10.4,-,N/A,,Clear,210,2013-04-21 23:35:00
6:55 PM,66.4,38.7,36,30.12,10.0,SSW,11.5,-,N/A,,Scattered Clouds,210,2013-04-21 23:55:00
7:15 PM,65.5,39.2,38,30.12,10.0,SSW,5.8,-,N/A,,Scattered Clouds,210,2013-04-22 00:15:00
7:35 PM,63.7,40.5,43,30.12,10.0,SSW,4.6,-,N/A,,Clear,200,2013-04-22 00:35:00
7:55 PM,62.6,38.3,41,30.12,10.0,South,5.8,-,N/A,,Clear,180,2013-04-22 00:55:00
8:15 PM,62.1,37.2,40,30.13,10.0,South,3.5,-,N/A,,Clear,180,2013-04-22 01:15:00
8:35 PM,61.0,36.5,40,30.14,10.0,Calm,Calm,-,N/A,,Clear,0,2013-04-22 01:35:00
8:55 PM,60.8,36.5,40,30.14,10.0,Calm,Calm,-,N/A,,Clear,0,2013-04-22 01:55:00
9:15 PM,57.0,40.8,55,30.14,10.0,Calm,Calm,-,N/A,,Clear,0,2013-04-22 02:15:00
9:35 PM,55.8,44.6,66,30.15,10.0,Calm,Calm,-,N/A,,Clear,0,2013-04-22 02:35:00
9:55 PM,55.8,44.1,65,30.15,10.0,Calm,Calm,-,N/A,,Clear,0,2013-04-22 02:55:00
10:15 PM,55.2,43.5,65,30.16,10.0,ESE,3.5,-,N/A,,Clear,120,2013-04-22 03:15:00
10:35 PM,54.7,42.4,63,30.16,10.0,SE,3.5,-,N/A,,Scattered Clouds,130,2013-04-22 03:35:00
10:55 PM,55.4,40.6,58,30.16,10.0,Calm,Calm,-,N/A,,Scattered Clouds,0,2013-04-22 03:55:00
11:15 PM,55.4,40.1,56,30.16,10.0,Calm,Calm,-,N/A,,Clear,0,2013-04-22 04:15:00
11:35 PM,55.8,38.3,52,30.15,10.0,SSE,4.6,-,N/A,,Clear,160,2013-04-22 04:35:00
11:55 PM,55.8,39.6,55,30.16,10.0,SSE,6.9,-,N/A,,Clear,160,2013-04-22 04:55:00